Regional Weather Roundup
Issued by NWS

Home | Current Version | Previous Version | Graphics & Text | Print | Product List | Glossary On
Versions: 1 2 3 4 5 6 7 8 9 10 11 12 13 14 15 16 17 18 19 20 21 22 23 24 25 26 27 28 29 30 31 32 33 34 35 36 37 38 39 40 41 42 43 44 45 46 47 48 49 50
000
ASUS45 KSLC 030010
RWRUT

UTAH REGIONAL WEATHER ROUNDUP
NATIONAL WEATHER SERVICE SALT LAKE CITY UT
600 PM MDT SAT MAY 02 2015

UTZ001>011-023>025-030100-

NORTHERN UTAH

CITY           SKY/WX    TMP DP  RH WIND       PRES   REMARKS
BRIGHAM CITY   PTSUNNY   77  28  16 N6        29.83F
HILL AFB       NOT AVBL
LOGAN          SUNNY     76  34  21 W6        29.84S
OGDEN          MOSUNNY   77  34  21 NW9       29.83S
PROVO AIRPORT  PTSUNNY   79  30  17 SW3       29.84S
SALT LAKE CITY PTSUNNY   80  32  17 NW13      29.80S
VERNAL         CLOUDY    69  29  22 SW5       29.93R
WENDOVER       CLOUDY    75  28  17 E9        29.83S
HEBER CITY     PTSUNNY   73  23  15 SW12G20   29.88F
WEST JORDAN    SUNNY     75  39  27 NW12      29.84S

$$

UTZ012>022-026-027-030100-

SOUTHERN/CENTRAL UTAH

CITY           SKY/WX    TMP DP  RH WIND       PRES   REMARKS
BLANDING       MOSUNNY   74  19  12 W10       30.01S
BRYCE CANYON   MOSUNNY   66  20  17 W14       30.08F
CEDAR CITY     MOSUNNY   75  17  11 SW18G25   29.94S
DELTA          PTSUNNY   78  22  12 W17G25    29.85S
HANKSVILLE     MOSUNNY   82  21  10 W10G20    29.85S
MILFORD        MOSUNNY   80  20  10 SW18G29   29.87F
MOAB/CYNLANDS  SUNNY     82  18   9 W20       29.81F
PRICE          MOSUNNY   77  18  11 W18G30    29.90F
ST GEORGE      MOCLDY    88  27  11 W9G18     29.80S

$$

REGIONAL REPORTS     COLORADO/ARIZONA

CITY           SKY/WX    TMP DP  RH WIND       PRES   REMARKS
CRAIG, CO      LGT RAIN  58  40  51 W12G24    30.04S
GRAND JUNCTION PTSUNNY   78  26  14 W9        29.85S
RIFLE          CLOUDY    72  31  22 NW5       29.92S
MONTROSE       PTSUNNY   75  26  16 E6        29.94F
CORTEZ         SUNNY     75  19  12 W13       29.96F
PAGE, AZ       PTSUNNY   79  26  14 W22       29.90R
GRAND CANYON   LGT RAIN  60  33  36 W10       30.11R
KINGMAN        MOSUNNY   86  27  11 SW20      29.86S
FLAGSTAFF      PTSUNNY   66  25  21 SW13      30.08R

$$

REGIONAL REPORTS    NEVADA/IDAHO/WYOMING

CITY           SKY/WX    TMP DP  RH WIND       PRES   REMARKS
LAS VEGAS, NV  PTSUNNY   90  25   9 SW14      29.70F
ELY            MOSUNNY   71  19  14 S10       29.92F
ELKO           PTSUNNY   74  20  13 SW8G33    29.84S
POCATELLO, ID  MOSUNNY   78  25  14 W18       29.81S
BURLEY         MOSUNNY   76  29  17 W15       29.79F
EVANSTON, WY   PTSUNNY   69  27  20 W15G23    29.97F
ROCK SPRINGS   CLOUDY    60  32  34 S14       29.97F
KEMMERER       PTSUNNY   64  23  20 W25G32    29.98F

$$


USA.gov is the U.S. government's official web portal to all federal, state and local government web resources and services.